User: anonymous   Login
Location: Unspecified
(0.0000°N, 0.0000°E)
Time: 00:22:08
(UTC+01:00)
Language:

Iridium 15 - Orbit

View from above orbital plane
View from above orbital plane
View from above satellite
View from above satellite

Ground track
Ground track

The orbit data is extracted from the following two-line orbital elements,

1 24869U 97034A   17017.58154821  .00000161  00000-0  50372-4 0  9991
2 24869  86.3953  85.0842 0002417  97.7609 262.3861 14.34224258 22326
Epoch (UTC): 17 January 2017 13:57:25
Eccentricity: 0.0002417
inclination: 86.3953°
perigee height: 776 km
apogee height: 779 km
right ascension of ascending node: 85.0842°
argument of perigee: 97.7609°
revolutions per day: 14.34224258
mean anomaly at epoch: 262.3861°
orbit number at epoch: 2232

The dashed part of the orbit path shows where the satellite is in the earth's shadow,  

DLR